map of XCH home
XCH - Airport
Location
City:  Christmas Island, Christmas Island
ICAO:YPXM
IATA:XCH

Details
Type:Airport (Aerodrome, Airfield)
Latitude:10°27'02"S (-10.450555)
Longitude:105°41'25"E (105.690278)
Datum:WGS 1984
Elevation:916 ft (279 m)
Variation:0.38°E (WMM2015 magnetic declination)
-0.00° annual change
Runways:1
Longest:6900 × 148 ft (2103 × 45 m), paved

Time
Time Zone:UTC+7
Local Time:

Weather
METAR:YPXM 230830Z AUTO 28007KT 2000 +SHRA OVC006 24/22 Q1010
TAF:YPXM 222254Z 2300/2324 12005KT 9999 -SHRA SCT008 BKN020
TEMPO 2300/2324 2000 SHRA BKN005

Related Locations
Nearby:
Farthest:FDA: 12443 mi / 20024 km
Fundación, MAG, CO

Find:

   beyond  
but within

Other Information
Maps:
NOTAMs:
Links:
Sources:

  
flag of Christmas Island   

Sectional Chart

Flight Planning
at skyvector.com

Satellite Image

Google Maps Satellite view

 

Copyright © 2004-2018 Karl L. Swartz. All rights reserved.
The Great Circle Mapper name and logo are trademarks of the Great Circle Mapper.
All other trademarks mentioned herein belong to their respective owners.
Please see credits for attibutions and further copyright information.

  Follow gcmap on Facebook Follow gcmap on Twitter Follow gcmap on Google+ GCmap on LinkedIn

hCard Microformat

Geo Microformat